Home > Weather > New Westminster > Past weeks

Flag for Canada Past Weather in New Westminster, British Columbia, Canada — Yesterday and Last 2 Weeks

Now
52 °F

Cool.


Feels Like: 52 °F
Forecast: 49 / 73 °F
Wind: No wind

Location: P. Meadows Coastal Station

Current Time: May 31, 2016 at 3:18:14 AM

Latest Report: May 31, 2016 at 2:00 AM


Visibility: N/A

Pressure: 30.18 "Hg

Humidity: 89%

Dew Point: 49 °F

Location of New WestminsterLocation

Past Weather in New Westminster — Graph

°F

New Westminster Temperature Yesterday

Maximum temperature yesterday: 71 °F (at 6:00 PM)
Minimum temperature yesterday: 46 °F (at 5:00 AM)
Average temperature yesterday: 59 °F

High & Low Weather Summary for the Past Weeks

 TemperatureHumidityPressure
High71 °F (May 17, 5:00 PM)100% (May 28, 3:00 PM)30.32 "Hg (May 28, 3:00 PM)
Low46 °F (May 30, 5:00 AM)41% (May 30, 6:00 PM)29.73 "Hg (May 21, 4:00 AM)
Average57 °F75%30.03 "Hg
* Reported May 16 1:00 AM — May 31 1:00 AM, New Westminster, Weather by CustomWeather, © 2016

Note: Actual official high and low records may vary slightly from our data, if they occured in-between our weather recording intervals... More about our weather records

Advertising

New Westminster Weather History for the Previous 24 Hours

Scroll right to see more
 ConditionsComfort  
Time TempWeatherWind HumidityBarometerVisibility
1:00 AM
Tue, May 31
53 °FCool.No wind87%30.18 "HgN/A
12:00 AM56 °FCool.No wind79%30.19 "HgN/A
11:00 PM
Mon, May 30
58 °FCool.2 mph73%30.19 "HgN/A
10:00 PM58 °FCool.No wind70%30.20 "HgN/A
9:00 PM62 °FCool.1 mph60%30.19 "HgN/A
8:00 PM67 °FMild.5 mph49%30.20 "HgN/A
7:00 PM69 °FMild.6 mph45%30.22 "HgN/A
6:00 PM71 °FMild.6 mph41%30.22 "HgN/A
5:00 PM70 °FMild.5 mph43%30.23 "HgN/A
4:00 PM70 °FMild.6 mph46%30.24 "HgN/A
3:00 PM69 °FMild.7 mph50%30.26 "HgN/A
2:00 PM69 °FMild.5 mph50%30.27 "HgN/A
1:00 PM67 °FMild.3 mph48%30.28 "HgN/A
12:00 PM64 °FMild.2 mph54%30.29 "HgN/A
11:00 AM62 °FRefreshingly cool.2 mph55%30.30 "HgN/A
10:00 AM59 °FCool.3 mph69%30.32 "HgN/A
9:00 AM56 °FCool.1 mph80%30.32 "HgN/A
8:00 AM53 °FCool.1 mph84%30.32 "HgN/A
7:00 AM49 °FCool.No wind92%30.31 "HgN/A
6:00 AM46 °FCool.No wind94%30.30 "HgN/A
5:00 AM46 °FCool.No wind87%30.29 "HgN/A
4:00 AM46 °FCool.No wind93%30.29 "HgN/A
3:00 AM47 °FCool.No wind92%30.27 "HgN/A
Weather by CustomWeather, © 2016

See weather overviewHow to use our weather pages